ALAS71 MGPB-MGGT

Flight info

Callsign ALAS71
Flight time N/A
Altitude 8500
Route LAGO MATITLAN
Aircraft DA40/L-SG/C

Departure

Time N/A
Airport Puerto Barrios Airport (MGPB)

Arrival

Time 2026-04-24 19:52
Airport La Aurora International Airport (MGGT)
Time Latitude Longitude Altitude Speed Heading
2026-04-24 18:54 15.35703 -89.20912 8561 ft 145 kts 235°
2026-04-24 18:55 15.34865 -89.22138 8561 ft 139 kts 236°
2026-04-24 18:55 15.34329 -89.22922 8561 ft 130 kts 236°
2026-04-24 18:55 15.33829 -89.23659 8563 ft 121 kts 236°
2026-04-24 18:56 15.33353 -89.24355 8558 ft 118 kts 235°
2026-04-24 18:56 15.32880 -89.25049 8564 ft 118 kts 235°
2026-04-24 18:56 15.32413 -89.25733 8566 ft 114 kts 235°
2026-04-24 18:56 15.31965 -89.26389 8568 ft 112 kts 235°
2026-04-24 18:57 15.31507 -89.27064 8568 ft 116 kts 236°
2026-04-24 18:57 15.31049 -89.27741 8568 ft 114 kts 235°
2026-04-24 18:57 15.30597 -89.28405 8566 ft 112 kts 235°
2026-04-24 18:57 15.30148 -89.29064 8576 ft 113 kts 236°
2026-04-24 18:58 15.29693 -89.29735 8573 ft 115 kts 235°
2026-04-24 18:58 15.29233 -89.30415 8584 ft 122 kts 234°
2026-04-24 18:58 15.28720 -89.31166 8576 ft 131 kts 235°
2026-04-24 18:58 15.28186 -89.31947 8574 ft 134 kts 235°
2026-04-24 18:59 15.27647 -89.32733 8576 ft 133 kts 235°
2026-04-24 18:59 15.27115 -89.33513 8583 ft 135 kts 235°
2026-04-24 18:59 15.26570 -89.34314 8587 ft 137 kts 235°
2026-04-24 18:59 15.26018 -89.35125 8584 ft 139 kts 235°
2026-04-24 19:00 15.25458 -89.35948 8590 ft 139 kts 235°
2026-04-24 19:00 15.24899 -89.36766 8588 ft 139 kts 235°
2026-04-24 19:00 15.24340 -89.37583 8589 ft 138 kts 235°
2026-04-24 19:00 15.23782 -89.38397 8588 ft 139 kts 235°
2026-04-24 19:01 15.23225 -89.39211 8590 ft 139 kts 235°
2026-04-24 19:01 15.22675 -89.40023 8586 ft 140 kts 235°
2026-04-24 19:01 15.22117 -89.40837 8584 ft 137 kts 235°
2026-04-24 19:01 15.21556 -89.41652 8603 ft 142 kts 235°
2026-04-24 19:02 15.20976 -89.42509 8614 ft 148 kts 236°
2026-04-24 19:02 15.20372 -89.43398 8598 ft 150 kts 235°
2026-04-24 19:02 15.19773 -89.44270 8593 ft 145 kts 235°
2026-04-24 19:02 15.19201 -89.45112 8599 ft 142 kts 234°
2026-04-24 19:03 15.18636 -89.45943 8603 ft 140 kts 236°
2026-04-24 19:03 15.18083 -89.46761 8597 ft 137 kts 235°
2026-04-24 19:03 15.17528 -89.47561 8608 ft 138 kts 235°
2026-04-24 19:03 15.16966 -89.48387 8604 ft 145 kts 236°
2026-04-24 19:04 15.16388 -89.49234 8586 ft 142 kts 235°
2026-04-24 19:04 15.15822 -89.50061 8613 ft 142 kts 236°
2026-04-24 19:04 15.15249 -89.50901 8597 ft 145 kts 235°
2026-04-24 19:04 15.14666 -89.51758 8611 ft 146 kts 235°
2026-04-24 19:05 15.14079 -89.52610 8610 ft 145 kts 235°
2026-04-24 19:05 15.13497 -89.53456 8616 ft 144 kts 235°
2026-04-24 19:05 15.12921 -89.54296 8624 ft 142 kts 235°
2026-04-24 19:05 15.12348 -89.55125 8619 ft 142 kts 235°
2026-04-24 19:06 15.11778 -89.55942 8622 ft 138 kts 234°
2026-04-24 19:06 15.11202 -89.56741 8621 ft 139 kts 234°
2026-04-24 19:06 15.10640 -89.57527 8615 ft 136 kts 234°
2026-04-24 19:06 15.10086 -89.58302 8625 ft 132 kts 235°
2026-04-24 19:07 15.09528 -89.59070 8630 ft 135 kts 234°
2026-04-24 19:07 15.08967 -89.59851 8633 ft 136 kts 234°
2026-04-24 19:07 15.08589 -89.60379 8633 ft 139 kts 234°
2026-04-24 19:07 15.07816 -89.61466 8628 ft 141 kts 235°
2026-04-24 19:08 15.07236 -89.62283 8625 ft 140 kts 234°
2026-04-24 19:08 15.06656 -89.63092 8639 ft 140 kts 234°
2026-04-24 19:08 15.06072 -89.63907 8639 ft 141 kts 235°
2026-04-24 19:08 15.05492 -89.64718 8642 ft 139 kts 234°
2026-04-24 19:09 15.04924 -89.65522 8644 ft 139 kts 235°
2026-04-24 19:09 15.04356 -89.66332 8645 ft 139 kts 234°
2026-04-24 19:09 15.03779 -89.67145 8650 ft 141 kts 235°
2026-04-24 19:09 15.03208 -89.67954 8654 ft 141 kts 234°
2026-04-24 19:10 15.02625 -89.68772 8655 ft 142 kts 234°
2026-04-24 19:10 15.02038 -89.69598 8657 ft 142 kts 234°
2026-04-24 19:10 15.01452 -89.70424 8662 ft 142 kts 234°
2026-04-24 19:10 15.00869 -89.71249 8660 ft 141 kts 234°
2026-04-24 19:11 15.00290 -89.72072 8664 ft 141 kts 234°
2026-04-24 19:11 14.99711 -89.72891 8664 ft 141 kts 234°
2026-04-24 19:11 14.99136 -89.73708 8665 ft 140 kts 234°
2026-04-24 19:11 14.98559 -89.74529 8672 ft 141 kts 234°
2026-04-24 19:12 14.97981 -89.75354 8673 ft 141 kts 234°
2026-04-24 19:12 14.97403 -89.76179 8673 ft 142 kts 234°
2026-04-24 19:12 14.96823 -89.77002 8670 ft 140 kts 234°
2026-04-24 19:12 14.96257 -89.77812 8677 ft 139 kts 234°
2026-04-24 19:13 14.95879 -89.78351 8677 ft 140 kts 234°
2026-04-24 19:13 14.95110 -89.79450 8673 ft 140 kts 235°
2026-04-24 19:13 14.94535 -89.80267 8676 ft 140 kts 234°
2026-04-24 19:13 14.93962 -89.81085 8679 ft 141 kts 234°
2026-04-24 19:14 14.93395 -89.81900 8683 ft 142 kts 234°
2026-04-24 19:14 14.92820 -89.82722 8679 ft 140 kts 234°
2026-04-24 19:14 14.92246 -89.83541 8681 ft 141 kts 234°
2026-04-24 19:14 14.91674 -89.84359 8681 ft 139 kts 234°
2026-04-24 19:15 14.91108 -89.85169 8686 ft 139 kts 234°
2026-04-24 19:15 14.90543 -89.85976 8688 ft 139 kts 234°
2026-04-24 19:15 14.89976 -89.86792 8691 ft 140 kts 234°
2026-04-24 19:15 14.89409 -89.87612 8694 ft 140 kts 234°
2026-04-24 19:16 14.88268 -89.89264 8697 ft 142 kts 234°
2026-04-24 19:16 14.87694 -89.90094 8697 ft 142 kts 234°
2026-04-24 19:16 14.87121 -89.90920 8697 ft 141 kts 234°
2026-04-24 19:17 14.86552 -89.91748 8701 ft 142 kts 234°
2026-04-24 19:17 14.85979 -89.92581 8706 ft 142 kts 234°
2026-04-24 19:17 14.85412 -89.93406 8708 ft 143 kts 234°
2026-04-24 19:17 14.84835 -89.94246 8707 ft 143 kts 234°
2026-04-24 19:18 14.84263 -89.95077 8705 ft 141 kts 235°
2026-04-24 19:18 14.83695 -89.95904 8711 ft 141 kts 234°
2026-04-24 19:18 14.83125 -89.96731 8713 ft 141 kts 234°
2026-04-24 19:18 14.82554 -89.97564 8713 ft 142 kts 235°
2026-04-24 19:19 14.81984 -89.98399 8715 ft 142 kts 234°
2026-04-24 19:19 14.81412 -89.99238 8726 ft 143 kts 235°
2026-04-24 19:19 14.80834 -90.00083 8716 ft 143 kts 235°
2026-04-24 19:19 14.80259 -90.00919 8716 ft 142 kts 234°
2026-04-24 19:20 14.79695 -90.01739 8726 ft 142 kts 235°
2026-04-24 19:20 14.79120 -90.02575 8725 ft 144 kts 235°
2026-04-24 19:20 14.78538 -90.03422 8729 ft 145 kts 235°
2026-04-24 19:20 14.77958 -90.04270 8731 ft 144 kts 234°
2026-04-24 19:21 14.77377 -90.05114 8729 ft 145 kts 234°
2026-04-24 19:21 14.76795 -90.05963 8734 ft 145 kts 235°
2026-04-24 19:21 14.76216 -90.06809 8739 ft 144 kts 235°
2026-04-24 19:21 14.75635 -90.07662 8740 ft 144 kts 234°
2026-04-24 19:22 14.75253 -90.08223 8739 ft 143 kts 234°
2026-04-24 19:22 14.74489 -90.09348 8745 ft 144 kts 235°
2026-04-24 19:22 14.73918 -90.10186 8745 ft 144 kts 235°
2026-04-24 19:22 14.73346 -90.11027 8745 ft 143 kts 235°
2026-04-24 19:23 14.72772 -90.11869 8756 ft 143 kts 234°
2026-04-24 19:23 14.72201 -90.12712 8750 ft 142 kts 235°
2026-04-24 19:23 14.71640 -90.13540 8752 ft 142 kts 235°
2026-04-24 19:23 14.71068 -90.14382 8760 ft 143 kts 235°
2026-04-24 19:24 14.70507 -90.15207 8759 ft 141 kts 234°
2026-04-24 19:24 14.69945 -90.16041 8762 ft 142 kts 235°
2026-04-24 19:24 14.69377 -90.16885 8766 ft 144 kts 235°
2026-04-24 19:24 14.68804 -90.17733 8771 ft 143 kts 235°
2026-04-24 19:25 14.68231 -90.18579 8776 ft 144 kts 234°
2026-04-24 19:25 14.67664 -90.19432 8787 ft 144 kts 236°
2026-04-24 19:25 14.67093 -90.20284 8798 ft 144 kts 233°
2026-04-24 19:25 14.66496 -90.21116 8783 ft 145 kts 234°
2026-04-24 19:26 14.65924 -90.21967 8779 ft 143 kts 235°
2026-04-24 19:26 14.65358 -90.22819 8758 ft 145 kts 233°
2026-04-24 19:26 14.64660 -90.23565 8751 ft 145 kts 219°
2026-04-24 19:26 14.63880 -90.24143 8922 ft 133 kts 213°
2026-04-24 19:27 14.63053 -90.24620 8899 ft 140 kts 204°
2026-04-24 19:27 14.62112 -90.24882 8929 ft 142 kts 188°
2026-04-24 19:27 14.61098 -90.24891 8873 ft 147 kts 176°
2026-04-24 19:27 14.60118 -90.24702 8951 ft 142 kts 166°
2026-04-24 19:28 14.59177 -90.24352 8866 ft 145 kts 160°
2026-04-24 19:28 14.58210 -90.24029 8871 ft 144 kts 168°
2026-04-24 19:28 14.57223 -90.23893 8885 ft 144 kts 178°
2026-04-24 19:28 14.56205 -90.23929 8856 ft 147 kts 188°
2026-04-24 19:29 14.54346 -90.24742 8864 ft 145 kts 216°
2026-04-24 19:29 14.53595 -90.25459 8740 ft 155 kts 226°
2026-04-24 19:29 14.52892 -90.26276 8691 ft 149 kts 232°
2026-04-24 19:30 14.52319 -90.27114 8762 ft 137 kts 235°
2026-04-24 19:30 14.51850 -90.27984 8736 ft 140 kts 238°
2026-04-24 19:30 14.51305 -90.28802 8801 ft 137 kts 237°
2026-04-24 19:30 14.50798 -90.29651 8743 ft 140 kts 239°
2026-04-24 19:31 14.50324 -90.30518 8705 ft 137 kts 239°
2026-04-24 19:31 14.49839 -90.31353 8678 ft 135 kts 242°
2026-04-24 19:31 14.49398 -90.32197 8815 ft 124 kts 241°
2026-04-24 19:31 14.48981 -90.32984 8796 ft 132 kts 241°
2026-04-24 19:32 14.48455 -90.33764 8777 ft 135 kts 236°
2026-04-24 19:32 14.47968 -90.34567 8884 ft 127 kts 239°
2026-04-24 19:32 14.47534 -90.35368 8876 ft 132 kts 241°
2026-04-24 19:32 14.47109 -90.36213 8890 ft 131 kts 241°
2026-04-24 19:33 14.46695 -90.37052 8900 ft 132 kts 245°
2026-04-24 19:33 14.46372 -90.37935 8933 ft 131 kts 248°
2026-04-24 19:33 14.45975 -90.38842 8733 ft 144 kts 243°
2026-04-24 19:33 14.45569 -90.39737 8871 ft 130 kts 243°
2026-04-24 19:34 14.45190 -90.40560 8929 ft 130 kts 250°
2026-04-24 19:34 14.45077 -90.41515 8843 ft 137 kts 269°
2026-04-24 19:34 14.45078 -90.42458 8930 ft 130 kts 269°
2026-04-24 19:34 14.45104 -90.43432 8806 ft 139 kts 271°
2026-04-24 19:35 14.45087 -90.44402 8867 ft 132 kts 265°
2026-04-24 19:35 14.45016 -90.45358 8814 ft 135 kts 264°
2026-04-24 19:35 14.44931 -90.46320 8823 ft 134 kts 263°
2026-04-24 19:35 14.44838 -90.47272 8810 ft 134 kts 264°
2026-04-24 19:36 14.44729 -90.48215 8795 ft 134 kts 263°
2026-04-24 19:36 14.44629 -90.49169 8810 ft 133 kts 262°
2026-04-24 19:36 14.44452 -90.50111 8778 ft 135 kts 259°
2026-04-24 19:36 14.44222 -90.51043 8782 ft 134 kts 252°
2026-04-24 19:37 14.43965 -90.51965 8753 ft 133 kts 255°
2026-04-24 19:37 14.43743 -90.52890 8721 ft 133 kts 258°
2026-04-24 19:37 14.43585 -90.53839 8697 ft 134 kts 259°
2026-04-24 19:37 14.43363 -90.54761 8685 ft 133 kts 263°
2026-04-24 19:38 14.43649 -90.55614 8760 ft 131 kts 315°
2026-04-24 19:38 14.44483 -90.55784 8870 ft 128 kts 21°
2026-04-24 19:38 14.44937 -90.55014 8725 ft 140 kts 98°
2026-04-24 19:38 14.44352 -90.54384 8867 ft 123 kts 172°
2026-04-24 19:39 14.43629 -90.54767 8770 ft 131 kts 247°
2026-04-24 19:39 14.43889 -90.55571 8852 ft 128 kts 327°
2026-04-24 19:39 14.44743 -90.55447 8833 ft 135 kts 44°
2026-04-24 19:39 14.44870 -90.54577 8878 ft 131 kts 122°
2026-04-24 19:40 14.44389 -90.54238 8852 ft 130 kts 174°
2026-04-24 19:40 14.43690 -90.54999 8906 ft 126 kts 279°
2026-04-24 19:40 14.44025 -90.55485 8819 ft 136 kts 328°
2026-04-24 19:40 14.44923 -90.55353 8873 ft 133 kts 45°
2026-04-24 19:41 14.45084 -90.55088 8952 ft 127 kts 71°
2026-04-24 19:41 14.44906 -90.55326 8870 ft 136 kts 24°
2026-04-24 19:42 14.45266 -90.54515 8909 ft 132 kts 106°
2026-04-24 19:42 14.44594 -90.54015 8931 ft 127 kts 186°
2026-04-24 19:42 14.44025 -90.54611 8937 ft 126 kts 265°
2026-04-24 19:42 14.44481 -90.55302 8989 ft 128 kts 341°
2026-04-24 19:43 14.45379 -90.55174 8978 ft 133 kts 17°
2026-04-24 19:43 14.46237 -90.54802 8958 ft 136 kts 24°
2026-04-24 19:43 14.47113 -90.54351 8898 ft 140 kts 27°
2026-04-24 19:43 14.47984 -90.53831 8751 ft 148 kts 30°
2026-04-24 19:44 14.48883 -90.53323 8621 ft 149 kts 24°
2026-04-24 19:44 14.49851 -90.52919 8491 ft 148 kts 21°
2026-04-24 19:44 14.50802 -90.52562 8400 ft 144 kts 19°
2026-04-24 19:44 14.51770 -90.52251 8238 ft 146 kts 14°
2026-04-24 19:45 14.52765 -90.51951 7945 ft 156 kts 19°
2026-04-24 19:45 14.53710 -90.51601 7965 ft 140 kts 20°
2026-04-24 19:45 14.54627 -90.51262 7794 ft 141 kts 19°
2026-04-24 19:45 14.55531 -90.50873 7658 ft 139 kts 23°
2026-04-24 19:46 14.56019 -90.50658 7606 ft 130 kts 24°
2026-04-24 19:46 14.56695 -90.50405 7343 ft 131 kts 17°
2026-04-24 19:46 14.57577 -90.50093 7119 ft 133 kts 20°
2026-04-24 19:46 14.58437 -90.49785 6895 ft 131 kts 19°
2026-04-24 19:47 14.59294 -90.49484 6707 ft 124 kts 19°
2026-04-24 19:47 14.60041 -90.49200 6555 ft 114 kts 21°
2026-04-24 19:47 14.60838 -90.48942 6354 ft 116 kts 11°
2026-04-24 19:47 14.61594 -90.48653 6107 ft 120 kts 17°
2026-04-24 19:48 14.62319 -90.48838 5953 ft 101 kts 307°
2026-04-24 19:48 14.62584 -90.49514 5834 ft 101 kts 280°
2026-04-24 19:48 14.62731 -90.49929 5823 ft 99 kts 287°
2026-04-24 19:49 14.62942 -90.50408 5719 ft 101 kts 290°
2026-04-24 19:50 14.62901 -90.51331 5506 ft 92 kts 210°
2026-04-24 19:50 14.62322 -90.51517 5525 ft 84 kts 189°
2026-04-24 19:51 14.61251 -90.51816 5433 ft 76 kts 193°
2026-04-24 19:51 14.60759 -90.51969 5345 ft 74 kts 194°
2026-04-24 19:52 14.59796 -90.52270 5136 ft 74 kts 196°
2026-04-24 19:52 14.59332 -90.52435 4986 ft 65 kts 194°
2026-04-24 19:52 14.58966 -90.52550 4937 ft 41 kts 193°
2026-04-24 19:52 14.58756 -90.52610 4926 ft 24 kts 199°
2026-04-24 19:53 14.58626 -90.52650 4923 ft 16 kts 197°
2026-04-24 19:53 14.58565 -90.52674 4921 ft 14 kts 217°
2026-04-24 19:53 14.58687 -90.52704 4924 ft 17 kts 18°
2026-04-24 19:54 14.58786 -90.52717 4927 ft 17 kts 287°
2026-04-24 19:54 14.58893 -90.52782 4929 ft 24 kts
2026-04-24 19:54 14.58953 -90.52802 4930 ft 4 kts 276°
2026-04-24 19:54 14.58973 -90.52869 4930 ft 2 kts 284°